Dickinson, TX

11:27 PM CDT on September 01, 2015 (GMT -0500)
Nana's House | | Change Station
CLOSE
Current Station
Personal Weather Station
Location: League City, TX
Elevation: 30 ft
Nearby Weather Stations

Elev 30 ft 29.49 °N, 95.10 °W | Updated 23 seconds ago

Mostly Cloudy
Mostly Cloudy
76.1 °F
Feels Like 75 °F
N
1.1
Wind Variable Wind from ENE

Today
High -- | Low -- °F
--% Chance of Precip.
Yesterday
High -- | Low -- °F
Precip. -- in
6:57 AM 7:42 PM
Waning Gibbous, 84% visible
Pressure 30.04 in
Visibility 10.0 miles
Clouds Few 2000 ft
Scattered Clouds 12000 ft
Mostly Cloudy 25000 ft
Heat Index 75 °F
Dew Point 76 °F
Humidity 99%
Rainfall 0.94 in
Snow Depth Not available.
UV 0 out of 12
Pollen 5.50 out of 12
Air Quality Not available.
Flu Activity Not available.
METAR KEFD 020350Z 03003KT 10SM FEW020 SCT120 BKN250 24/22 A3004
Pressure 30.04 in
Visibility 10.0 miles
Clouds Few 2000 ft
Scattered Clouds 12000 ft
Mostly Cloudy 25000 ft
Heat Index 75 °F
Dew Point 76 °F
Humidity 99%
Rainfall 0.94 in
Snow Depth Not available.
UV 0 out of 12
Pollen 5.50 out of 12
Air Quality Not available.
Flu Activity Not available.
METAR KEFD 020350Z 03003KT 10SM FEW020 SCT120 BKN250 24/22 A3004

10-Day Weather Forecast

×

Almanac

Astronomy

Sep. 01, 2015 Rise Set
Actual Time
Civil Twilight
Nautical Twilight
Astronomical Twilight
Moon
Length of Visible Light
Length of Day
Tomorrow will be .
, % of the Moon is Illuminated

Today's Extremes

State Highs State Lows

Community

WunderPhotos

Upload Photos

1,851,695 photos uploaded!

WunderBlogs® & News

Nearby

Air Quality

  Air Quality AQ Index Pollutant
Not available.

Snow Depth

Station Depth Elevation

Earthquake Activity

City Distance Mag. Time & Date
Minimum magnitude displayed is 2.5.

Coastal Water Temperatures

Place Temperature

Stations

Nearby Weather Stations

Station Location Temp. Windchill Dew Point Humidity Wind Precip. Elev Updated Type